Greenwood, MS

3:55 AM CDT on April 24, 2018 (GMT -0500)
Greenwood-Leflore

Weather History for KGWO - December, 2013

Change the Weather History Date:

Tuesday, December 24, 2013

  Actual Average Record
Temperature  
Mean Temperature 33 °F 44 °F  
Max Temperature 44 °F 54 °F 80 °F (1955)
Min Temperature 22 °F 34 °F 5 °F (1989)
Degree Days  
Heating Degree Days 32 21  
Month to date heating degree days 474 450  
Since 1 July heating degree days 1041 918  
Cooling Degree Days 0 0  
Month to date cooling degree days 11 0  
Year to date cooling degree days 2109 2159  
Moisture  
Dew Point 23 °F    
Average Humidity 66    
Maximum Humidity 92    
Minimum Humidity 39    
Precipitation  
Precipitation 0.00 in 0.18 in 3.65 in (1973)
Month to date precipitation 4.40 4.53  
Year to date precipitation 58.10 50.65  
Sea Level Pressure  
Sea Level Pressure 30.52 in    
Wind  
Wind Speed 4 mph (NE)    
Max Wind Speed 15 mph    
Max Gust Speed 19 mph    
Visibility 10 miles    
Events      
T = Trace of Precipitation, MM = Missing Value Source: NWS Daily Summary

Daily Weather History Graph

Daily Weather History Graph

Search for Another Location

Airport or City:

Astronomy

Dec. 24, 2013 Rise Set
Actual Time 7:02 AM CST 4:58 PM CST
Civil Twilight 6:34 AM CST 5:25 PM CST
Nautical Twilight 6:03 AM CST 5:56 PM CST
Astronomical Twilight 5:33 AM CST 6:27 PM CST
Moon 11:46 PM CST 11:14 AM CST
Length of Visible Light 10h 51m
Length of Day
9h 56m
Waning Gibbous, 58% of the Moon is Illuminated
Dec 24
Waning Gibbous
Dec 25
Last Quarter
Jan 1
New
Jan 7
First Quarter
Jan 15
Full

Hourly Weather History & Observations

Time (CST) Temp. Windchill Dew Point Humidity Pressure Visibility Wind Dir Wind Speed Gust Speed Precip Events Conditions
12:53 AM 26.1 °F - 24.1 °F 92% 30.52 in 10.0 mi Calm Calm - N/A   Clear
1:53 AM 26.1 °F - 24.1 °F 92% 30.53 in 9.0 mi Calm Calm - N/A   Clear
2:53 AM 25.0 °F - 23.0 °F 92% 30.54 in 10.0 mi Calm Calm - N/A   Clear
3:53 AM 25.0 °F - 23.0 °F 92% 30.54 in 10.0 mi Calm Calm - N/A   Clear
4:53 AM 24.1 °F - 21.9 °F 91% 30.55 in 8.0 mi Calm Calm - N/A   Clear
5:53 AM 25.0 °F - 23.0 °F 92% 30.56 in 10.0 mi Calm Calm - N/A   Clear
6:53 AM 24.1 °F 19.7 °F 21.9 °F 91% 30.57 in 8.0 mi NNE 3.5 mph - N/A   Clear
7:53 AM 28.9 °F 23.9 °F 26.1 °F 89% 30.58 in 10.0 mi NNE 4.6 mph - N/A   Clear
8:53 AM 32.0 °F 24.8 °F 27.0 °F 82% 30.61 in 10.0 mi NNE 8.1 mph - N/A   Clear
9:53 AM 35.1 °F 27.4 °F 25.0 °F 67% 30.62 in 10.0 mi NNE 10.4 mph - N/A   Clear
10:53 AM 37.0 °F 30.4 °F 21.9 °F 54% 30.60 in 10.0 mi North 9.2 mph - N/A   Clear
11:53 AM 39.0 °F 33.4 °F 23.0 °F 53% 30.57 in 10.0 mi NE 8.1 mph - N/A   Clear
12:53 PM 41.0 °F 35.8 °F 24.1 °F 51% 30.54 in 10.0 mi NNE 8.1 mph - N/A   Clear
1:53 PM 43.0 °F 38.8 °F 23.0 °F 45% 30.51 in 10.0 mi North 6.9 mph - N/A   Clear
2:53 PM 44.1 °F 42.5 °F 21.9 °F 42% 30.50 in 10.0 mi North 3.5 mph - N/A   Clear
3:53 PM 43.0 °F 38.8 °F 19.9 °F 40% 30.48 in 10.0 mi NNE 6.9 mph - N/A   Clear
4:53 PM 39.0 °F 34.8 °F 21.9 °F 50% 30.47 in 10.0 mi ENE 5.8 mph - N/A   Clear
5:53 PM 34.0 °F - 24.1 °F 67% 30.47 in 10.0 mi Calm Calm - N/A   Clear
6:53 PM 33.1 °F 30.0 °F 25.0 °F 72% 30.46 in 10.0 mi NNE 3.5 mph - N/A   Clear
7:53 PM 28.9 °F 25.2 °F 25.0 °F 85% 30.47 in 10.0 mi NE 3.5 mph - N/A   Clear
8:53 PM 28.0 °F - 24.1 °F 85% 30.46 in 10.0 mi Calm Calm - N/A   Clear
9:53 PM 30.9 °F 24.3 °F 23.0 °F 72% 30.44 in 10.0 mi East 6.9 mph - N/A   Clear
10:53 PM 28.9 °F 21.9 °F 21.9 °F 75% 30.43 in 10.0 mi East 6.9 mph - N/A   Clear
11:53 PM 27.0 °F - 21.9 °F 81% 30.43 in 10.0 mi Calm Calm - N/A   Clear